Location: Antin
(43.3330°N, 0.2804°E)
Time: 04:10:27
(UTC+00:00)

ATLAS 3B R/B - Pass Details

Date: 16 October 2021
Orbit: 989 x 1206 km, 63.8° (Epoch: 25 November)

Event Time Altitude Azimuth Distance (km) Brightness Sun altitude
Rises 18:24:06 0° 229° (SW) 3,702 6.3 -13.5°
Reaches altitude 10° 18:26:42 10° 233° (SW) 2,769 5.7 -14.0°
Maximum altitude 18:33:04 57° 312° (NW) 1,200 3.2 -15.1°
Drops below altitude 10° 18:39:48 10° 30° (NNE) 2,904 4.7 -16.3°
Sets 18:42:35 0° 35° (NE) 3,896 5.3 -16.9°
